Oujda, Morocco

4:21 AM WET on February 10, 2016 (GMT +0000)
Angads

Weather History for GMFO - March, 2014

Change the Weather History Date:

Thursday, March 6, 2014

  Actual Average Record
Temperature  
Mean Temperature 52 °F -  
Max Temperature 70 °F 67 °F 89 °F (2001)
Min Temperature 35 °F 44 °F 32 °F (2008)
Degree Days  
Heating Degree Days 12    
Growing Degree Days 2 (Base 50)    
Moisture  
Dew Point 44 °F    
Average Humidity 74    
Maximum Humidity 100    
Minimum Humidity 24    
Precipitation  
Precipitation 0.00 in 0.06 in - ()
Sea Level Pressure  
Sea Level Pressure 30.12 in    
Wind  
Wind Speed 3 mph ()    
Max Wind Speed 8 mph    
Max Gust Speed -    
Visibility 7.7 miles    
Events      
Averages and records for this station are not official NWS values.
T = Trace of Precipitation, MM = Missing Value Source: Averaged Metar Reports

Daily Weather History Graph

Daily Weather History Graph

Search for Another Location

Airport or City:

Trip Planner

Search our weather history database for the weather conditions in past years. The results will help you decide how hot, cold, wet, or windy it might be!

Date:

Astronomy

Mar. 06, 2014 Rise Set
Actual Time 6:30 AM WET 6:07 PM WET
Civil Twilight 6:05 AM WET 6:32 PM WET
Nautical Twilight 5:36 AM WET 7:02 PM WET
Astronomical Twilight 5:07 AM WET 7:31 PM WET
Moon 9:41 AM WET (3/6) 11:46 PM WET (3/6)
Length of Visible Light 12h 27m
Length of Day
11h 36m
Waxing Crescent, 30% of the Moon is Illuminated
Mar 6
Waxing Crescent
Mar 8
First Quarter
Mar 16
Full
Mar 24
Last Quarter
Mar 30
New

Hourly Weather History & Observations

Time (WET) Temp. Windchill Dew Point Humidity Pressure Visibility Wind Dir Wind Speed Gust Speed Precip Events Conditions
12:00 AM 44 °F - 43 °F 96% 30.21 in 14 mi West 5.8 mph - -   Partly Cloudy
12:00 AM 42.8 °F 39.3 °F 42.8 °F 100% 30.15 in 6.2 mi West 5.8 mph - N/A   Scattered Clouds
1:00 AM 46.4 °F 42.4 °F 46.4 °F 100% 30.12 in 6.2 mi SW 8.1 mph - N/A   Scattered Clouds
2:00 AM 41.0 °F - 41.0 °F 100% 30.15 in 6.2 mi Calm Calm - N/A   Scattered Clouds
3:00 AM 38 °F - 38 °F 99% 30.21 in 14 mi ENE 1.2 mph - -   Partly Cloudy
3:00 AM 44.6 °F - 44.6 °F 100% 30.12 in 6.2 mi Variable 2.3 mph - N/A   Scattered Clouds
4:00 AM 44.6 °F - 44.6 °F 100% 30.12 in 6.2 mi Variable 1.2 mph - N/A   Scattered Clouds
5:00 AM 37.4 °F - 35.6 °F 93% 30.15 in 6.2 mi Calm Calm - N/A   Scattered Clouds
6:00 AM 36 °F - 36 °F 100% 30.22 in 11 mi Calm Calm - -   Partly Cloudy
6:00 AM 35.6 °F - 35.6 °F 100% 30.15 in 6.2 mi Calm Calm - N/A   Scattered Clouds
7:00 AM 44.6 °F - 44.6 °F 100% 30.12 in 5.0 mi Variable 1.2 mph - N/A   Partly Cloudy
8:00 AM 44.6 °F - 42.8 °F 93% 30.18 in 6.2 mi Calm Calm - N/A   Scattered Clouds
9:00 AM 52 °F - 46 °F 72% 30.20 in 19 mi South 1.2 mph - -   Partly Cloudy
9:00 AM 51.8 °F - 46.4 °F 82% 30.18 in 6.2 mi Calm Calm - N/A   Scattered Clouds
10:00 AM 59.0 °F - 46.4 °F 63% 30.15 in 6.2 mi Calm Calm - N/A   Scattered Clouds
11:00 AM 68.0 °F - 55.4 °F 64% 30.15 in 6.2 mi Variable 1.2 mph - N/A   Partly Cloudy
12:00 PM 65 °F - 43 °F 33% 30.12 in 47 mi ESE 4.6 mph - -   Partly Cloudy
12:00 PM 66.2 °F - 42.8 °F 43% 30.12 in 6.2 mi SSE 4.6 mph - N/A   Scattered Clouds
1:00 PM 68.0 °F - 44.6 °F 43% 30.09 in 6.2 mi East 3.5 mph - N/A   Partly Cloudy
2:00 PM 68.0 °F - 41.0 °F 37% 30.04 in 6.2 mi East 3.5 mph - N/A   Partly Cloudy
3:00 PM 68 °F - 40 °F 24% 30.01 in 37 mi ENE 5.8 mph - -   Partly Cloudy
3:00 PM 68.0 °F - 42.8 °F 40% 30.04 in 6.2 mi NNE 6.9 mph - N/A   Partly Cloudy
4:00 PM 69.8 °F - 42.8 °F 38% 30.01 in 6.2 mi NNE 4.6 mph - N/A   Partly Cloudy
5:00 PM 68.0 °F - 41.0 °F 37% 30.04 in 6.2 mi ENE 8.1 mph - N/A   Scattered Clouds
6:00 PM 61 °F - 50 °F 59% 30.05 in 28 mi NE 6.9 mph - -   Partly Cloudy
6:00 PM 60.8 °F - 50.0 °F 68% 30.06 in 6.2 mi NNE 6.9 mph - N/A   Scattered Clouds
7:00 PM 53.6 °F - 48.2 °F 82% 30.06 in 6.2 mi North 5.8 mph - N/A   Scattered Clouds
8:00 PM 51.8 °F - 44.6 °F 76% 30.06 in 6.2 mi Variable 2.3 mph - N/A   Partly Cloudy
9:00 PM 49 °F - 44 °F 78% 30.14 in 19 mi WSW 3.5 mph - -   Partly Cloudy
9:00 PM 48.2 °F - 44.6 °F 87% 30.09 in 6.2 mi Variable 1.2 mph - N/A   Partly Cloudy
10:00 PM 50.0 °F - 44.6 °F 82% 30.09 in 6.2 mi Variable 2.3 mph - N/A   Partly Cloudy
11:00 PM 46.4 °F 45.2 °F 42.8 °F 87% 30.09 in 6.2 mi SW 3.5 mph - N/A   Partly Cloudy